Year,Month,Day,Hour,Minute,Value (Times are PST for temperature in C)
2009,05,19,00,00,7.30
2009,05,19,00,01,7.30
2009,05,19,00,02,7.30
2009,05,19,00,03,7.30
2009,05,19,00,04,7.30
2009,05,19,00,05,7.30
2009,05,19,00,06,7.30
2009,05,19,00,07,7.30
2009,05,19,00,08,7.30
2009,05,19,00,09,7.30
2009,05,19,00,10,7.30
2009,05,19,00,11,7.30
2009,05,19,00,12,7.30
2009,05,19,00,13,7.30
2009,05,19,00,14,7.20
2009,05,19,00,15,7.20
2009,05,19,00,16,7.20
2009,05,19,00,17,7.20
2009,05,19,00,18,7.10
2009,05,19,00,19,7.10
2009,05,19,00,20,7.10
2009,05,19,00,21,7.10
2009,05,19,00,22,7.00
2009,05,19,00,23,7.00
2009,05,19,00,24,7.00
2009,05,19,00,25,7.00
2009,05,19,00,26,6.90
2009,05,19,00,27,6.90
2009,05,19,00,28,6.80
2009,05,19,00,29,6.80
2009,05,19,00,30,6.80
2009,05,19,00,31,6.80
2009,05,19,00,32,6.80
2009,05,19,00,33,6.80
2009,05,19,00,34,6.80
2009,05,19,00,35,6.80
2009,05,19,00,36,6.80
2009,05,19,00,37,6.80
2009,05,19,00,38,6.80
2009,05,19,00,39,6.80
2009,05,19,00,40,6.80
2009,05,19,00,41,6.80
2009,05,19,00,42,6.70
2009,05,19,00,43,6.70
2009,05,19,00,44,6.70
2009,05,19,00,45,6.70
2009,05,19,00,46,6.70
2009,05,19,00,47,6.70
2009,05,19,00,48,6.70
2009,05,19,00,49,6.60
2009,05,19,00,50,6.60
2009,05,19,00,51,6.60
2009,05,19,00,52,6.60
2009,05,19,00,53,6.60
2009,05,19,00,54,6.60
2009,05,19,00,55,6.60
2009,05,19,00,56,6.60
2009,05,19,00,57,6.50
2009,05,19,00,58,6.40
2009,05,19,00,59,6.40
2009,05,19,01,00,6.40
2009,05,19,01,01,6.40
2009,05,19,01,02,6.40
2009,05,19,01,03,6.40
2009,05,19,01,04,6.40
2009,05,19,01,05,6.40
2009,05,19,01,06,6.40
2009,05,19,01,07,6.40
2009,05,19,01,08,6.40
2009,05,19,01,09,6.40
2009,05,19,01,10,6.40
2009,05,19,01,11,6.40
2009,05,19,01,12,6.40
2009,05,19,01,13,6.40
2009,05,19,01,14,6.40
2009,05,19,01,15,6.40
2009,05,19,01,16,6.40
2009,05,19,01,17,6.40
2009,05,19,01,18,6.40
2009,05,19,01,19,6.40
2009,05,19,01,20,6.40
2009,05,19,01,21,6.30
2009,05,19,01,22,6.30
2009,05,19,01,23,6.30
2009,05,19,01,24,6.30
2009,05,19,01,25,6.30
2009,05,19,01,26,6.30
2009,05,19,01,27,6.30
2009,05,19,01,28,6.30
2009,05,19,01,29,6.30
2009,05,19,01,30,6.30
2009,05,19,01,31,6.20
2009,05,19,01,32,6.20
2009,05,19,01,33,6.20
2009,05,19,01,34,6.20
2009,05,19,01,35,6.20
2009,05,19,01,36,6.20
2009,05,19,01,37,6.20
2009,05,19,01,38,6.20
2009,05,19,01,39,6.20
2009,05,19,01,40,6.20
2009,05,19,01,41,6.10
2009,05,19,01,42,6.10
2009,05,19,01,43,6.10
2009,05,19,01,44,6.00
2009,05,19,01,45,6.00
2009,05,19,01,46,6.00
2009,05,19,01,47,6.00
2009,05,19,01,48,6.10
2009,05,19,01,49,6.10
2009,05,19,01,50,6.10
2009,05,19,01,51,6.20
2009,05,19,01,52,6.20
2009,05,19,01,53,6.20
2009,05,19,01,54,6.20
2009,05,19,01,55,6.20
2009,05,19,01,56,6.20
2009,05,19,01,57,6.20
2009,05,19,01,58,6.20
2009,05,19,01,59,6.20
2009,05,19,02,00,6.10
2009,05,19,02,01,6.10
2009,05,19,02,02,6.00
2009,05,19,02,03,6.00
2009,05,19,02,04,5.90
2009,05,19,02,05,5.90
2009,05,19,02,06,5.80
2009,05,19,02,07,5.80
2009,05,19,02,08,5.80
2009,05,19,02,09,5.80
2009,05,19,02,10,5.80
2009,05,19,02,11,5.70
2009,05,19,02,12,5.70
2009,05,19,02,13,5.70
2009,05,19,02,14,5.70
2009,05,19,02,15,5.70
2009,05,19,02,16,5.70
2009,05,19,02,17,5.60
2009,05,19,02,18,5.60
2009,05,19,02,19,5.60
2009,05,19,02,20,5.50
2009,05,19,02,21,5.50
2009,05,19,02,22,5.50
2009,05,19,02,23,5.50
2009,05,19,02,24,5.40
2009,05,19,02,25,5.40
2009,05,19,02,26,5.40
2009,05,19,02,27,5.40
2009,05,19,02,28,5.30
2009,05,19,02,29,5.30
2009,05,19,02,30,5.30
2009,05,19,02,31,5.30
2009,05,19,02,32,5.30
2009,05,19,02,33,5.30
2009,05,19,02,34,5.30
2009,05,19,02,35,5.30
2009,05,19,02,36,5.20
2009,05,19,02,37,5.20
2009,05,19,02,38,5.20
2009,05,19,02,39,5.20
2009,05,19,02,40,5.20
2009,05,19,02,41,5.20
2009,05,19,02,42,5.20
2009,05,19,02,43,5.10
2009,05,19,02,44,5.10
2009,05,19,02,45,5.10
2009,05,19,02,46,5.10
2009,05,19,02,47,5.10
2009,05,19,02,48,5.10
2009,05,19,02,49,5.10
2009,05,19,02,50,5.10
2009,05,19,02,51,5.10
2009,05,19,02,52,5.10
2009,05,19,02,53,5.10
2009,05,19,02,54,5.10
2009,05,19,02,55,5.10
2009,05,19,02,56,5.10
2009,05,19,02,57,5.10
2009,05,19,02,58,5.10
2009,05,19,02,59,5.10
2009,05,19,03,00,5.10
2009,05,19,03,01,5.10
2009,05,19,03,02,5.10
2009,05,19,03,03,5.10
2009,05,19,03,04,5.10
2009,05,19,03,05,5.10
2009,05,19,03,06,5.10
2009,05,19,03,07,5.10
2009,05,19,03,08,5.10
2009,05,19,03,09,5.10
2009,05,19,03,10,5.10
2009,05,19,03,11,5.10
2009,05,19,03,12,5.10
2009,05,19,03,13,5.10
2009,05,19,03,14,5.10
2009,05,19,03,15,5.10
2009,05,19,03,16,5.10
2009,05,19,03,17,5.10
2009,05,19,03,18,5.10
2009,05,19,03,19,5.10
2009,05,19,03,20,5.10
2009,05,19,03,21,5.10
2009,05,19,03,22,5.10
2009,05,19,03,23,5.10
2009,05,19,03,24,5.10
2009,05,19,03,25,5.10
2009,05,19,03,26,5.10
2009,05,19,03,27,5.10
2009,05,19,03,28,5.10
2009,05,19,03,29,5.10
2009,05,19,03,30,5.10
2009,05,19,03,31,5.10
2009,05,19,03,32,5.20
2009,05,19,03,33,5.20
2009,05,19,03,34,5.20
2009,05,19,03,35,5.20
2009,05,19,03,36,5.30
2009,05,19,03,37,5.30
2009,05,19,03,38,5.30
2009,05,19,03,39,5.30
2009,05,19,03,40,5.30
2009,05,19,03,41,5.30
2009,05,19,03,42,5.30
2009,05,19,03,43,5.30
2009,05,19,03,44,5.30
2009,05,19,03,45,5.30
2009,05,19,03,46,5.30
2009,05,19,03,47,5.30
2009,05,19,03,48,5.30
2009,05,19,03,49,5.30
2009,05,19,03,50,5.30
2009,05,19,03,51,5.30
2009,05,19,03,52,5.30
2009,05,19,03,53,5.30
2009,05,19,03,54,5.30
2009,05,19,03,55,5.30
2009,05,19,03,56,5.30
2009,05,19,03,57,5.30
2009,05,19,03,58,5.30
2009,05,19,03,59,5.30
2009,05,19,04,00,5.30
2009,05,19,04,01,5.30
2009,05,19,04,02,5.30
2009,05,19,04,03,5.30
2009,05,19,04,04,5.30
2009,05,19,04,05,5.30
2009,05,19,04,06,5.40
2009,05,19,04,07,5.40
2009,05,19,04,08,5.40
2009,05,19,04,09,5.40
2009,05,19,04,10,5.40
2009,05,19,04,11,5.40
2009,05,19,04,12,5.40
2009,05,19,04,13,5.40
2009,05,19,04,14,5.30
2009,05,19,04,15,5.30
2009,05,19,04,16,5.40
2009,05,19,04,17,5.50
2009,05,19,04,18,5.50
2009,05,19,04,19,5.60
2009,05,19,04,20,5.60
2009,05,19,04,21,5.70
2009,05,19,04,22,5.70
2009,05,19,04,23,5.90
2009,05,19,04,24,6.00
2009,05,19,04,25,6.00
2009,05,19,04,26,6.00
2009,05,19,04,27,6.00
2009,05,19,04,28,6.00
2009,05,19,04,29,6.00
2009,05,19,04,30,6.00
2009,05,19,04,31,6.00
2009,05,19,04,32,6.00
2009,05,19,04,33,6.10
2009,05,19,04,34,6.10
2009,05,19,04,35,6.20
2009,05,19,04,36,6.20
2009,05,19,04,37,6.10
2009,05,19,04,38,6.10
2009,05,19,04,39,6.10
2009,05,19,04,40,6.10
2009,05,19,04,41,6.10
2009,05,19,04,42,6.10
2009,05,19,04,43,6.10
2009,05,19,04,44,6.10
2009,05,19,04,45,6.00
2009,05,19,04,46,6.00
2009,05,19,04,47,6.00
2009,05,19,04,48,6.00
2009,05,19,04,49,6.00
2009,05,19,04,50,6.10
2009,05,19,04,51,6.10
2009,05,19,04,52,6.10
2009,05,19,04,53,6.10
2009,05,19,04,54,6.10
2009,05,19,04,55,6.10
2009,05,19,04,56,6.10
2009,05,19,04,57,6.10
2009,05,19,04,58,6.10
2009,05,19,04,59,6.00
2009,05,19,05,00,6.00
2009,05,19,05,01,6.00
2009,05,19,05,02,6.00
2009,05,19,05,03,5.90
2009,05,19,05,04,5.90
2009,05,19,05,05,5.90
2009,05,19,05,06,5.90
2009,05,19,05,07,5.90
2009,05,19,05,08,5.80
2009,05,19,05,09,5.80
2009,05,19,05,10,5.80
2009,05,19,05,11,5.80
2009,05,19,05,12,5.80
2009,05,19,05,13,5.80
2009,05,19,05,14,5.80
2009,05,19,05,15,5.80
2009,05,19,05,16,5.70
2009,05,19,05,17,5.80
2009,05,19,05,18,5.80
2009,05,19,05,19,5.80
2009,05,19,05,20,5.80
2009,05,19,05,21,5.80
2009,05,19,05,22,5.80
2009,05,19,05,23,5.90
2009,05,19,05,24,5.90
2009,05,19,05,25,5.90
2009,05,19,05,26,5.90
2009,05,19,05,27,5.90
2009,05,19,05,28,5.90
2009,05,19,05,29,5.90
2009,05,19,05,30,5.90
2009,05,19,05,31,5.90
2009,05,19,05,32,5.90
2009,05,19,05,33,5.90
2009,05,19,05,34,5.90
2009,05,19,05,35,5.90
2009,05,19,05,36,5.90
2009,05,19,05,37,5.90
2009,05,19,05,38,5.80
2009,05,19,05,39,5.80
2009,05,19,05,40,5.80
2009,05,19,05,41,5.80
2009,05,19,05,42,5.80
2009,05,19,05,43,5.80
2009,05,19,05,44,5.90
2009,05,19,05,45,5.90
2009,05,19,05,46,5.90
2009,05,19,05,47,5.90
2009,05,19,05,48,5.90
2009,05,19,05,49,5.90
2009,05,19,05,50,5.90
2009,05,19,05,51,5.90
2009,05,19,05,52,5.80
2009,05,19,05,53,5.80
2009,05,19,05,54,5.80
2009,05,19,05,55,5.80
2009,05,19,05,56,5.80
2009,05,19,05,57,5.80
2009,05,19,05,58,5.80
2009,05,19,05,59,5.80
2009,05,19,06,00,5.80
2009,05,19,06,01,5.80
2009,05,19,06,02,5.70
2009,05,19,06,03,5.70
2009,05,19,06,04,5.80
2009,05,19,06,05,5.90
2009,05,19,06,06,5.90
2009,05,19,06,07,6.00
2009,05,19,06,08,6.00
2009,05,19,06,09,6.00
2009,05,19,06,10,6.00
2009,05,19,06,11,6.00
2009,05,19,06,12,6.00
2009,05,19,06,13,6.00
2009,05,19,06,14,5.90
2009,05,19,06,15,5.90
2009,05,19,06,16,5.90
2009,05,19,06,17,5.90
2009,05,19,06,18,5.90
2009,05,19,06,19,5.90
2009,05,19,06,20,6.00
2009,05,19,06,21,6.10
2009,05,19,06,22,6.20
2009,05,19,06,23,6.20
2009,05,19,06,24,6.20
2009,05,19,06,25,6.20
2009,05,19,06,26,6.20
2009,05,19,06,27,6.20
2009,05,19,06,28,6.20
2009,05,19,06,29,6.20
2009,05,19,06,30,6.10
2009,05,19,06,31,6.10
2009,05,19,06,32,6.10
2009,05,19,06,33,6.10
2009,05,19,06,34,6.10
2009,05,19,06,35,6.10
2009,05,19,06,36,6.10
2009,05,19,06,37,6.10
2009,05,19,06,38,6.20
2009,05,19,06,39,6.30
2009,05,19,06,40,6.30
2009,05,19,06,41,6.40
2009,05,19,06,42,6.40
2009,05,19,06,43,6.40
2009,05,19,06,44,6.40
2009,05,19,06,45,6.40
2009,05,19,06,46,6.40
2009,05,19,06,47,6.40
2009,05,19,06,48,6.40
2009,05,19,06,49,6.40
2009,05,19,06,50,6.30
2009,05,19,06,51,6.30
2009,05,19,06,52,6.40
2009,05,19,06,53,6.40
2009,05,19,06,54,6.40
2009,05,19,06,55,6.40
2009,05,19,06,56,6.40
2009,05,19,06,57,6.40
2009,05,19,06,58,6.40
2009,05,19,06,59,6.40
2009,05,19,07,00,6.40
2009,05,19,07,01,6.40
2009,05,19,07,02,6.40
2009,05,19,07,03,6.40
2009,05,19,07,04,6.50
2009,05,19,07,05,6.50
2009,05,19,07,06,6.50
2009,05,19,07,07,6.60
2009,05,19,07,08,6.60
2009,05,19,07,09,6.60
2009,05,19,07,10,6.60
2009,05,19,07,11,6.70
2009,05,19,07,12,6.80
2009,05,19,07,13,6.80
2009,05,19,07,14,6.80
2009,05,19,07,15,6.90
2009,05,19,07,16,7.00
2009,05,19,07,17,7.10
2009,05,19,07,18,7.20
2009,05,19,07,19,7.20
2009,05,19,07,20,7.30
2009,05,19,07,21,7.30
2009,05,19,07,22,7.40
2009,05,19,07,23,7.40
2009,05,19,07,24,7.40
2009,05,19,07,25,7.40
2009,05,19,07,26,7.40
2009,05,19,07,27,7.50
2009,05,19,07,28,7.50
2009,05,19,07,29,7.50
2009,05,19,07,30,7.50
2009,05,19,07,31,7.60
2009,05,19,07,32,7.60
2009,05,19,07,33,7.60
2009,05,19,07,34,7.70
2009,05,19,07,35,7.70
2009,05,19,07,36,7.80
2009,05,19,07,37,7.80
2009,05,19,07,38,7.90
2009,05,19,07,39,7.90
2009,05,19,07,40,8.00
2009,05,19,07,41,8.00
2009,05,19,07,42,8.10
2009,05,19,07,43,8.20
2009,05,19,07,44,8.20
2009,05,19,07,45,8.20
2009,05,19,07,46,8.20
2009,05,19,07,47,8.20
2009,05,19,07,48,8.20
2009,05,19,07,49,8.20
2009,05,19,07,50,8.20
2009,05,19,07,51,8.20
2009,05,19,07,52,8.20
2009,05,19,07,53,8.20
2009,05,19,07,54,8.20
2009,05,19,07,55,8.20
2009,05,19,07,56,8.20
2009,05,19,07,57,8.20
2009,05,19,07,58,8.20
2009,05,19,07,59,8.20
2009,05,19,08,00,8.20
2009,05,19,08,01,8.30
2009,05,19,08,02,8.30
2009,05,19,08,03,8.40
2009,05,19,08,04,8.50
2009,05,19,08,05,8.60
2009,05,19,08,06,8.60
2009,05,19,08,07,8.50
2009,05,19,08,08,8.50
2009,05,19,08,09,8.60
2009,05,19,08,10,8.60
2009,05,19,08,11,8.60
2009,05,19,08,12,8.70
2009,05,19,08,13,8.70
2009,05,19,08,14,8.70
2009,05,19,08,15,8.70
2009,05,19,08,16,8.70
2009,05,19,08,17,8.70
2009,05,19,08,18,8.70
2009,05,19,08,19,8.70
2009,05,19,08,20,8.70
2009,05,19,08,21,8.70
2009,05,19,08,22,8.70
2009,05,19,08,23,8.80
2009,05,19,08,24,8.70
2009,05,19,08,25,8.70
2009,05,19,08,26,8.70
2009,05,19,08,27,8.70
2009,05,19,08,28,8.70
2009,05,19,08,29,8.70
2009,05,19,08,30,8.70
2009,05,19,08,31,8.60
2009,05,19,08,32,8.60
2009,05,19,08,33,8.50
2009,05,19,08,34,8.50
2009,05,19,08,35,8.50
2009,05,19,08,36,8.40
2009,05,19,08,37,8.40
2009,05,19,08,38,8.40
2009,05,19,08,39,8.30
2009,05,19,08,40,8.30
2009,05,19,08,41,8.30
2009,05,19,08,42,8.30
2009,05,19,08,43,8.30
2009,05,19,08,44,8.30
2009,05,19,08,45,8.40
2009,05,19,08,46,8.40
2009,05,19,08,47,8.40
2009,05,19,08,48,8.40
2009,05,19,08,49,8.40
2009,05,19,08,50,8.40
2009,05,19,08,51,8.40
2009,05,19,08,52,8.40
2009,05,19,08,53,8.50
2009,05,19,08,54,8.50
2009,05,19,08,55,8.50
2009,05,19,08,56,8.50
2009,05,19,08,57,8.40
2009,05,19,08,58,8.40
2009,05,19,08,59,8.40
2009,05,19,09,00,8.50
2009,05,19,09,01,8.50
2009,05,19,09,02,8.50
2009,05,19,09,03,8.50
2009,05,19,09,04,8.50
2009,05,19,09,05,8.50
2009,05,19,09,06,8.60
2009,05,19,09,07,8.60
2009,05,19,09,08,8.60
2009,05,19,09,09,8.60
2009,05,19,09,10,8.60
2009,05,19,09,11,8.60
2009,05,19,09,12,8.60
2009,05,19,09,13,8.50
2009,05,19,09,14,8.50
2009,05,19,09,15,8.60
2009,05,19,09,16,8.60
2009,05,19,09,17,8.70
2009,05,19,09,18,8.70
2009,05,19,09,19,8.70
2009,05,19,09,20,8.70
2009,05,19,09,21,8.70
2009,05,19,09,22,8.70
2009,05,19,09,23,8.70
2009,05,19,09,24,8.70
2009,05,19,09,25,8.70
2009,05,19,09,26,8.80
2009,05,19,09,27,8.80
2009,05,19,09,28,8.80
2009,05,19,09,29,8.80
2009,05,19,09,30,8.90
2009,05,19,09,31,8.90
2009,05,19,09,32,8.90
2009,05,19,09,33,8.90
2009,05,19,09,34,8.90
2009,05,19,09,35,9.00
2009,05,19,09,36,9.10
2009,05,19,09,37,9.10
2009,05,19,09,38,9.20
2009,05,19,09,39,9.20
2009,05,19,09,40,9.20
2009,05,19,09,41,9.20
2009,05,19,09,42,9.20
2009,05,19,09,43,9.20
2009,05,19,09,44,9.20
2009,05,19,09,45,9.20
2009,05,19,09,46,9.30
2009,05,19,09,47,9.30
2009,05,19,09,48,9.30
2009,05,19,09,49,9.30
2009,05,19,09,50,9.30
2009,05,19,09,51,9.30
2009,05,19,09,52,9.30
2009,05,19,09,53,9.30
2009,05,19,09,54,9.30
2009,05,19,09,55,9.30
2009,05,19,09,56,9.30
2009,05,19,09,57,9.40
2009,05,19,09,58,9.40
2009,05,19,09,59,9.50
2009,05,19,10,00,9.50
2009,05,19,10,01,9.50
2009,05,19,10,02,9.50
2009,05,19,10,03,9.50
2009,05,19,10,04,9.50
2009,05,19,10,05,9.50
2009,05,19,10,06,9.50
2009,05,19,10,07,9.50
2009,05,19,10,08,9.50
2009,05,19,10,09,9.50
2009,05,19,10,10,9.50
2009,05,19,10,11,9.50
2009,05,19,10,12,9.50
2009,05,19,10,13,9.50
2009,05,19,10,14,9.50
2009,05,19,10,15,9.60
2009,05,19,10,16,9.60
2009,05,19,10,17,9.70
2009,05,19,10,18,9.70
2009,05,19,10,19,9.70
2009,05,19,10,20,9.70
2009,05,19,10,21,9.60
2009,05,19,10,22,9.60
2009,05,19,10,23,9.60
2009,05,19,10,24,9.60
2009,05,19,10,25,9.60
2009,05,19,10,26,9.50
2009,05,19,10,27,9.50
2009,05,19,10,28,9.50
2009,05,19,10,29,9.40
2009,05,19,10,30,9.40
2009,05,19,10,31,9.50
2009,05,19,10,32,9.40
2009,05,19,10,33,9.40
2009,05,19,10,34,9.30
2009,05,19,10,35,9.30
2009,05,19,10,36,9.20
2009,05,19,10,37,9.20
2009,05,19,10,38,9.20
2009,05,19,10,39,9.20
2009,05,19,10,40,9.20
2009,05,19,10,41,9.10
2009,05,19,10,42,9.10
2009,05,19,10,43,9.10
2009,05,19,10,44,9.10
2009,05,19,10,45,9.10
2009,05,19,10,46,9.20
2009,05,19,10,47,9.20
2009,05,19,10,48,9.20
2009,05,19,10,49,9.20
2009,05,19,10,50,9.20
2009,05,19,10,51,9.30
2009,05,19,10,52,9.30
2009,05,19,10,53,9.30
2009,05,19,10,54,9.40
2009,05,19,10,55,9.40
2009,05,19,10,56,9.50
2009,05,19,10,57,9.50
2009,05,19,10,58,9.50
2009,05,19,10,59,9.50
2009,05,19,11,00,9.50
2009,05,19,11,01,9.60
2009,05,19,11,02,9.60
2009,05,19,11,03,9.60
2009,05,19,11,04,9.60
2009,05,19,11,05,9.60
2009,05,19,11,06,9.60
2009,05,19,11,07,9.70
2009,05,19,11,08,9.70
2009,05,19,11,09,9.70
2009,05,19,11,10,9.70
2009,05,19,11,11,9.70
2009,05,19,11,12,9.70
2009,05,19,11,13,9.80
2009,05,19,11,14,9.80
2009,05,19,11,15,9.80
2009,05,19,11,16,9.90
2009,05,19,11,17,9.90
2009,05,19,11,18,9.90
2009,05,19,11,19,10.10
2009,05,19,11,20,10.10
2009,05,19,11,21,10.20
2009,05,19,11,22,10.30
2009,05,19,11,23,10.30
2009,05,19,11,24,10.40
2009,05,19,11,25,10.50
2009,05,19,11,26,10.60
2009,05,19,11,27,10.60
2009,05,19,11,28,10.60
2009,05,19,11,29,10.60
2009,05,19,11,30,10.60
2009,05,19,11,31,10.60
2009,05,19,11,32,10.60
2009,05,19,11,33,10.60
2009,05,19,11,34,10.60
2009,05,19,11,35,10.60
2009,05,19,11,36,10.60
2009,05,19,11,37,10.60
2009,05,19,11,38,10.60
2009,05,19,11,39,10.70
2009,05,19,11,40,10.70
2009,05,19,11,41,10.60
2009,05,19,11,42,10.70
2009,05,19,11,43,10.70
2009,05,19,11,44,10.70
2009,05,19,11,45,10.80
2009,05,19,11,46,10.80
2009,05,19,11,47,10.80
2009,05,19,11,48,10.90
2009,05,19,11,49,10.90
2009,05,19,11,50,10.90
2009,05,19,11,51,10.90
2009,05,19,11,52,10.90
2009,05,19,11,53,10.90
2009,05,19,11,54,10.90
2009,05,19,11,55,10.90
2009,05,19,11,56,10.90
2009,05,19,11,57,10.90
2009,05,19,11,58,10.90
2009,05,19,11,59,10.90
2009,05,19,12,00,11.00
2009,05,19,12,01,11.10
2009,05,19,12,02,11.20
2009,05,19,12,03,11.30
2009,05,19,12,04,11.50
2009,05,19,12,05,11.60
2009,05,19,12,06,11.80
2009,05,19,12,07,11.80
2009,05,19,12,08,11.90
2009,05,19,12,09,11.90
2009,05,19,12,10,12.00
2009,05,19,12,11,12.00
2009,05,19,12,12,12.10
2009,05,19,12,13,12.10
2009,05,19,12,14,12.20
2009,05,19,12,15,12.20
2009,05,19,12,16,12.30
2009,05,19,12,17,12.40
2009,05,19,12,18,12.40
2009,05,19,12,19,12.40
2009,05,19,12,20,12.50
2009,05,19,12,21,12.50
2009,05,19,12,22,12.60
2009,05,19,12,23,12.60
2009,05,19,12,24,12.60
2009,05,19,12,25,12.70
2009,05,19,12,26,12.60
2009,05,19,12,27,12.50
2009,05,19,12,28,12.50
2009,05,19,12,29,12.50
2009,05,19,12,30,12.40
2009,05,19,12,31,12.40
2009,05,19,12,32,12.30
2009,05,19,12,33,12.30
2009,05,19,12,34,12.30
2009,05,19,12,35,12.30
2009,05,19,12,36,12.30
2009,05,19,12,37,12.40
2009,05,19,12,38,12.50
2009,05,19,12,39,12.70
2009,05,19,12,40,12.80
2009,05,19,12,41,12.80
2009,05,19,12,42,12.80
2009,05,19,12,43,12.80
2009,05,19,12,44,12.80
2009,05,19,12,45,12.80
2009,05,19,12,46,12.80
2009,05,19,12,47,12.80
2009,05,19,12,48,12.70
2009,05,19,12,49,12.60
2009,05,19,12,50,12.50
2009,05,19,12,51,12.50
2009,05,19,12,52,12.50
2009,05,19,12,53,12.60
2009,05,19,12,54,12.50
2009,05,19,12,55,12.30
2009,05,19,12,56,12.20
2009,05,19,12,57,12.00
2009,05,19,12,58,12.00
2009,05,19,12,59,12.00
2009,05,19,13,00,11.90
2009,05,19,13,01,11.90
2009,05,19,13,02,11.80
2009,05,19,13,03,11.70
2009,05,19,13,04,11.70
2009,05,19,13,05,11.70
2009,05,19,13,06,11.60
2009,05,19,13,07,11.60
2009,05,19,13,08,11.60
2009,05,19,13,09,11.60
2009,05,19,13,10,11.60
2009,05,19,13,11,11.60
2009,05,19,13,12,11.50
2009,05,19,13,13,11.40
2009,05,19,13,14,11.40
2009,05,19,13,15,11.40
2009,05,19,13,16,11.40
2009,05,19,13,17,11.40
2009,05,19,13,18,11.40
2009,05,19,13,19,11.40
2009,05,19,13,20,11.40
2009,05,19,13,21,11.40
2009,05,19,13,22,11.50
2009,05,19,13,23,11.60
2009,05,19,13,24,11.60
2009,05,19,13,25,11.60
2009,05,19,13,26,11.70
2009,05,19,13,27,11.80
2009,05,19,13,28,11.80
2009,05,19,13,29,11.80
2009,05,19,13,30,11.80
2009,05,19,13,31,11.90
2009,05,19,13,32,12.00
2009,05,19,13,33,12.20
2009,05,19,13,34,12.30
2009,05,19,13,35,12.30
2009,05,19,13,36,12.30
2009,05,19,13,37,12.30
2009,05,19,13,38,12.30
2009,05,19,13,39,12.30
2009,05,19,13,40,12.30
2009,05,19,13,41,12.30
2009,05,19,13,42,12.30
2009,05,19,13,43,12.30
2009,05,19,13,44,12.40
2009,05,19,13,45,12.40
2009,05,19,13,46,12.40
2009,05,19,13,47,12.40
2009,05,19,13,48,12.40
2009,05,19,13,49,12.40
2009,05,19,13,50,12.40
2009,05,19,13,51,12.40
2009,05,19,13,52,12.50
2009,05,19,13,53,12.50
2009,05,19,13,54,12.50
2009,05,19,13,55,12.40
2009,05,19,13,56,12.40
2009,05,19,13,57,12.30
2009,05,19,13,58,12.30
2009,05,19,13,59,12.40
2009,05,19,14,00,12.40
2009,05,19,14,01,12.50
2009,05,19,14,02,12.50
2009,05,19,14,03,12.50
2009,05,19,14,04,12.40
2009,05,19,14,05,12.30
2009,05,19,14,06,12.30
2009,05,19,14,07,12.20
2009,05,19,14,08,12.10
2009,05,19,14,09,12.10
2009,05,19,14,10,12.20
2009,05,19,14,11,12.30
2009,05,19,14,12,12.40
2009,05,19,14,13,12.50
2009,05,19,14,14,12.70
2009,05,19,14,15,12.80
2009,05,19,14,16,12.80
2009,05,19,14,17,12.80
2009,05,19,14,18,12.80
2009,05,19,14,19,12.80
2009,05,19,14,20,12.80
2009,05,19,14,21,12.70
2009,05,19,14,22,12.60
2009,05,19,14,23,12.60
2009,05,19,14,24,12.50
2009,05,19,14,25,12.40
2009,05,19,14,26,12.40
2009,05,19,14,27,12.50
2009,05,19,14,28,12.50
2009,05,19,14,29,12.60
2009,05,19,14,30,12.60
2009,05,19,14,31,12.60
2009,05,19,14,32,12.70
2009,05,19,14,33,12.80
2009,05,19,14,34,13.00
2009,05,19,14,35,13.10
2009,05,19,14,36,13.20
2009,05,19,14,37,13.30
2009,05,19,14,38,13.40
2009,05,19,14,39,13.30
2009,05,19,14,40,13.30
2009,05,19,14,41,13.40
2009,05,19,14,42,13.40
2009,05,19,14,43,13.40
2009,05,19,14,44,13.30
2009,05,19,14,45,13.20
2009,05,19,14,46,13.10
2009,05,19,14,47,13.10
2009,05,19,14,48,13.10
2009,05,19,14,49,13.00
2009,05,19,14,50,13.00
2009,05,19,14,51,12.90
2009,05,19,14,52,12.90
2009,05,19,14,53,12.90
2009,05,19,14,54,12.80
2009,05,19,14,55,12.80
2009,05,19,14,56,12.80
2009,05,19,14,57,12.70
2009,05,19,14,58,12.70
2009,05,19,14,59,12.60
2009,05,19,15,00,12.70
2009,05,19,15,01,12.70
2009,05,19,15,02,12.70
2009,05,19,15,03,12.70
2009,05,19,15,04,12.80
2009,05,19,15,05,12.80
2009,05,19,15,06,12.80
2009,05,19,15,07,12.80
2009,05,19,15,08,12.80
2009,05,19,15,09,12.70
2009,05,19,15,10,12.70
2009,05,19,15,11,12.80
2009,05,19,15,12,12.80
2009,05,19,15,13,12.80
2009,05,19,15,14,12.70
2009,05,19,15,15,12.60
2009,05,19,15,16,12.60
2009,05,19,15,17,12.60
2009,05,19,15,18,12.60
2009,05,19,15,19,12.60
2009,05,19,15,20,12.60
2009,05,19,15,21,12.50
2009,05,19,15,22,12.50
2009,05,19,15,23,12.50
2009,05,19,15,24,12.40
2009,05,19,15,25,12.30
2009,05,19,15,26,12.30
2009,05,19,15,27,12.30
2009,05,19,15,28,12.40
2009,05,19,15,29,12.40
2009,05,19,15,30,12.40
2009,05,19,15,31,12.40
2009,05,19,15,32,12.40
2009,05,19,15,33,12.40
2009,05,19,15,34,12.50
2009,05,19,15,35,12.50
2009,05,19,15,36,12.60
2009,05,19,15,37,12.60
2009,05,19,15,38,12.60
2009,05,19,15,39,12.70
2009,05,19,15,40,12.80
2009,05,19,15,41,12.80
2009,05,19,15,42,12.80
2009,05,19,15,43,12.80
2009,05,19,15,44,12.80
2009,05,19,15,45,12.80
2009,05,19,15,46,12.80
2009,05,19,15,47,12.80
2009,05,19,15,48,12.80
2009,05,19,15,49,12.80
2009,05,19,15,50,12.80
2009,05,19,15,51,12.80
2009,05,19,15,52,12.80
2009,05,19,15,53,12.80
2009,05,19,15,54,12.90
2009,05,19,15,55,12.90
2009,05,19,15,56,13.00
2009,05,19,15,57,13.10
2009,05,19,15,58,13.10
2009,05,19,15,59,13.20
2009,05,19,16,00,13.20
2009,05,19,16,01,13.10
2009,05,19,16,02,13.10
2009,05,19,16,03,13.20
2009,05,19,16,04,13.10
2009,05,19,16,05,13.20
2009,05,19,16,06,13.20
2009,05,19,16,07,13.20
2009,05,19,16,08,13.20
2009,05,19,16,09,13.20
2009,05,19,16,10,13.20
2009,05,19,16,11,13.20
2009,05,19,16,12,13.20
2009,05,19,16,13,13.20
2009,05,19,16,14,13.20
2009,05,19,16,15,13.20
2009,05,19,16,16,13.20
2009,05,19,16,17,13.20
2009,05,19,16,18,13.10
2009,05,19,16,19,13.10
2009,05,19,16,20,13.00
2009,05,19,16,21,13.00
2009,05,19,16,22,12.90
2009,05,19,16,23,12.80
2009,05,19,16,24,12.80
2009,05,19,16,25,12.80
2009,05,19,16,26,12.80
2009,05,19,16,27,12.80
2009,05,19,16,28,12.80
2009,05,19,16,29,12.80
2009,05,19,16,30,12.70
2009,05,19,16,31,12.60
2009,05,19,16,32,12.60
2009,05,19,16,33,12.50
2009,05,19,16,34,12.60
2009,05,19,16,35,12.60
2009,05,19,16,36,12.60
2009,05,19,16,37,12.70
2009,05,19,16,38,12.70
2009,05,19,16,39,12.70
2009,05,19,16,40,12.80
2009,05,19,16,41,12.80
2009,05,19,16,42,12.70
2009,05,19,16,43,12.60
2009,05,19,16,44,12.60
2009,05,19,16,45,12.60
2009,05,19,16,46,12.60
2009,05,19,16,47,12.50
2009,05,19,16,48,12.50
2009,05,19,16,49,12.50
2009,05,19,16,50,12.40
2009,05,19,16,51,12.30
2009,05,19,16,52,12.30
2009,05,19,16,53,12.20
2009,05,19,16,54,12.10
2009,05,19,16,55,12.10
2009,05,19,16,56,12.00
2009,05,19,16,57,12.00
2009,05,19,16,58,12.00
2009,05,19,16,59,12.00
2009,05,19,17,00,12.00
2009,05,19,17,01,11.90
2009,05,19,17,02,11.90
2009,05,19,17,03,11.90
2009,05,19,17,04,11.90
2009,05,19,17,05,11.90
2009,05,19,17,06,11.80
2009,05,19,17,07,11.90
2009,05,19,17,08,11.80
2009,05,19,17,09,11.80
2009,05,19,17,10,11.80
2009,05,19,17,11,11.80
2009,05,19,17,12,11.80
2009,05,19,17,13,11.80
2009,05,19,17,14,11.80
2009,05,19,17,15,11.80
2009,05,19,17,16,11.80
2009,05,19,17,17,11.80
2009,05,19,17,18,11.80
2009,05,19,17,19,11.80
2009,05,19,17,20,11.80
2009,05,19,17,21,11.80
2009,05,19,17,22,11.80
2009,05,19,17,23,11.80
2009,05,19,17,24,11.80
2009,05,19,17,25,11.80
2009,05,19,17,26,11.80
2009,05,19,17,27,11.90
2009,05,19,17,28,11.90
2009,05,19,17,29,12.00
2009,05,19,17,30,12.00
2009,05,19,17,31,12.10
2009,05,19,17,32,12.10
2009,05,19,17,33,12.20
2009,05,19,17,34,12.20
2009,05,19,17,35,12.30
2009,05,19,17,36,12.30
2009,05,19,17,37,12.30
2009,05,19,17,38,12.30
2009,05,19,17,39,12.30
2009,05,19,17,40,12.30
2009,05,19,17,41,12.30
2009,05,19,17,42,12.30
2009,05,19,17,43,12.30
2009,05,19,17,44,12.40
2009,05,19,17,45,12.40
2009,05,19,17,46,12.30
2009,05,19,17,47,12.30
2009,05,19,17,48,12.30